Weather reports worldwide

Advertisment
Milano/Linate, Italy (16080): temperature & dewpoint: 13.11.2019 18:00:00 - 19.11.2019 18:00:00 (CET)Milano/Linate, Italy (16080): wind speed: 13.11.2019 18:00:00 - 19.11.2019 18:00:00 (CET)Milano/Linate, Italy (16080): wind direction: 13.11.2019 18:00:00 - 19.11.2019 18:00:00 (CET)Milano/Linate, Italy (16080): reduced air pressure: 13.11.2019 18:00:00 - 19.11.2019 18:00:00 (CET)Milano/Linate, Italy (16080): visibility: 13.11.2019 18:00:00 - 19.11.2019 18:00:00 (CET)Milano/Linate, Italy (16080): precipitation: 13.11.2019 18:00:00 - 19.11.2019 18:00:00 (CET)
Date & Time tt [°C] td [°C] ff [km/h] ff [kn] dd ppp [hPa] vv [km] rr [mm]
19.11.2019 18:00:00 9,0 9,0 4 2 - - 8 -
19.11.2019 17:00:00 9,0 9,0 4 2 - - 6 -
19.11.2019 16:00:00 9,2 8,5 8 4 N 1015,2 6 0,0
19.11.2019 15:00:00 9,0 9,0 8 4 NW - 5 -
19.11.2019 14:00:00 9,0 8,0 5 3 WNW - 7 -
19.11.2019 13:00:00 9,0 8,4 8 4 NW 1015,0 7 -
19.11.2019 12:00:00 9,0 8,0 4 2 - - 6 -
19.11.2019 11:00:00 8,0 8,0 5 3 N - 7 -
19.11.2019 10:00:00 8,0 7,5 9 5 N 1015,0 4,0 0,0
19.11.2019 09:00:00 8,0 7,0 8 4 N - 5 -
19.11.2019 08:00:00 8,0 7,0 5 3 NW - 7 -
19.11.2019 07:00:00 7,4 6,6 8 4 NNW 1014,3 8 -
19.11.2019 06:00:00 7,0 7,0 5 3 NW - 7 -
19.11.2019 05:00:00 7,0 7,0 8 4 N - 8 -
19.11.2019 04:00:00 7,5 6,7 4 2 - 1014,2 7 0,0
19.11.2019 03:00:00 8,0 7,0 8 4 N - 7 -
19.11.2019 02:00:00 7,0 7,0 8 4 N - 7 -
19.11.2019 01:00:00 7,5 6,8 5 3 N 1015,4 8 -
19.11.2019 00:00:00 8,0 7,0 8 4 NNW - 10 -
18.11.2019 23:00:00 8,0 7,0 4 2 NW - 5 -
18.11.2019 22:00:00 7,6 6,8 4 2 NNW 1016,0 5 0,0
18.11.2019 21:00:00 8,0 7,0 4 2 NNW - 5 -
18.11.2019 20:00:00 8,0 7,0 5 3 N - 4,0 -
18.11.2019 19:00:00 7,7 6,9 2 1 - 1015,6 7 -
18.11.2019 18:00:00 8,0 7,0 4 2 - - 7 -
18.11.2019 17:00:00 8,0 6,0 4 2 SW - 7 -
18.11.2019 16:00:00 8,3 6,7 4 2 - 1014,7 7 0,0
18.11.2019 15:00:00 9,0 6,0 2 1 - - 7 -
18.11.2019 14:00:00 8,0 6,0 4 2 - - 8 -
18.11.2019 13:00:00 8,3 6,0 5 3 SSW 1014,4 10 -
18.11.2019 12:00:00 9,0 6,0 4 2 - - 10 -
18.11.2019 11:00:00 8,0 6,0 4 2 - - 9 -
18.11.2019 10:00:00 7,7 5,9 5 3 S 1013,4 8 0,0
18.11.2019 09:00:00 5,0 5,0 4 2 NNE - 9 -
18.11.2019 08:00:00 6,0 6,0 4 2 - - 6 -
18.11.2019 07:00:00 5,9 5,4 2 1 - 1011,1 10 -
18.11.2019 06:00:00 6,0 5,0 4 2 - - 8 -
18.11.2019 05:00:00 6,0 5,0 8 4 SSE - 7 -
18.11.2019 04:00:00 6,3 5,6 5 3 SE 1008,8 7 0,0
18.11.2019 03:00:00 6,0 6,0 8 4 E - 7 -
18.11.2019 02:00:00 6,0 6,0 8 4 ENE - 7 -
18.11.2019 01:00:00 6,6 5,8 5 3 N 1007,2 6 -
18.11.2019 00:00:00 6,0 6,0 8 4 ENE - 6 -
17.11.2019 23:00:00 6,0 6,0 4 2 - - 3,5 -
17.11.2019 22:00:00 6,2 5,7 9 5 SE 1006,5 7 0,0
17.11.2019 21:00:00 7,0 6,0 9 5 SSW - 10 -
17.11.2019 20:00:00 7,0 6,0 5 3 E - 10 -
17.11.2019 19:00:00 6,0 5,3 11 6 NNE 1005,6 10 -
17.11.2019 18:00:00 7,0 6,0 8 4 NNE - 10 -
17.11.2019 17:00:00 7,0 6,0 2 1 - - 10 -
17.11.2019 16:00:00 7,3 6,3 5 3 SW 1003,9 10 0,0
17.11.2019 15:00:00 8,0 7,0 5 3 W - 8 -
17.11.2019 14:00:00 8,0 7,0 9 5 WSW - 3,0 -
17.11.2019 13:00:00 7,7 6,7 8 4 W 1001,8 6 -
17.11.2019 12:00:00 8,0 8,0 5 3 W - 2,0 -
17.11.2019 11:00:00 8,0 7,0 9 5 NW - 2,0 -
17.11.2019 10:00:00 7,6 7,1 5 3 WNW 1001,4 2,0 0,0
17.11.2019 09:00:00 7,0 7,0 8 4 NNW - 3,0 -
17.11.2019 08:00:00 8,0 7,0 5 3 W - 3,0 -
17.11.2019 07:00:00 7,6 6,7 4 2 - 1002,8 6 -
17.11.2019 06:00:00 8,0 7,0 8 4 WSW - 10 -
17.11.2019 05:00:00 - - - - - - - -
17.11.2019 04:00:00 7,6 7,0 5 3 W 1005,7 6 0,0
17.11.2019 03:00:00 8,0 7,0 4 2 - - 6 -
17.11.2019 02:00:00 8,0 7,0 4 2 - - 10 -
17.11.2019 01:00:00 8,2 7,2 8 4 SE 1009,2 10 -
17.11.2019 00:00:00 9,0 7,0 8 4 ESE - 10 -
16.11.2019 23:00:00 9,0 7,0 5 3 NE - 10 -
16.11.2019 22:00:00 8,2 6,9 4 2 W 1011,3 10 0,0
16.11.2019 21:00:00 9,0 7,0 4 2 NNW - 10 -
16.11.2019 20:00:00 9,0 8,0 5 3 NNW - 10 -
16.11.2019 19:00:00 8,4 7,1 5 3 N 1012,8 10 -
16.11.2019 18:00:00 9,0 7,0 5 3 N - 6 -
16.11.2019 17:00:00 9,0 8,0 4 2 - - 7 -
16.11.2019 16:00:00 9,6 7,6 5 3 SSE 1013,7 8 0,0
16.11.2019 15:00:00 10,0 7,0 4 2 - - 10 -
16.11.2019 14:00:00 10,0 7,0 5 3 ESE - 10 -
16.11.2019 13:00:00 9,4 7,0 2 1 - 1013,2 10 -
16.11.2019 12:00:00 9,0 7,0 4 2 - - 6 -
16.11.2019 11:00:00 9,0 7,0 8 4 ESE - 7 -
16.11.2019 10:00:00 8,3 7,0 5 3 E 1012,7 5 0,0
16.11.2019 09:00:00 8,0 7,0 2 1 - - 5 -
16.11.2019 08:00:00 7,0 7,0 4 2 - - 5 -
16.11.2019 07:00:00 6,8 6,3 2 1 W 1010,1 5 -
16.11.2019 06:00:00 7,0 6,0 2 1 - - 5 -
16.11.2019 05:00:00 6,0 6,0 9 5 E - 5 -
16.11.2019 04:00:00 6,2 5,7 2 1 - 1008,2 4,0 0,0
16.11.2019 03:00:00 6,0 6,0 4 2 SE - 3,5 -
16.11.2019 02:00:00 6,0 6,0 4 2 - - 3,5 -
16.11.2019 01:00:00 6,2 5,8 5 3 SSW 1007,0 2,0 -
16.11.2019 00:00:00 6,0 6,0 4 2 SE - 2,0 -
15.11.2019 23:00:00 6,0 6,0 2 1 - - 2,0 -
15.11.2019 22:00:00 5,8 5,4 5 3 SW 1005,3 2,5 0,0
15.11.2019 21:00:00 6,0 5,0 8 4 WSW - 3,5 -
15.11.2019 20:00:00 6,0 5,0 4 2 - - 10 -
15.11.2019 19:00:00 6,6 5,4 8 4 WSW 1003,3 10 -
15.11.2019 18:00:00 8,0 6,0 5 3 ESE - 10 -
15.11.2019 17:00:00 7,0 6,0 4 2 - - 6 -
15.11.2019 16:00:00 7,2 6,1 8 4 WSW 1002,7 6 0,0
15.11.2019 15:00:00 8,0 6,0 11 6 SW - 6 -
15.11.2019 14:00:00 9,0 7,0 9 5 S - 6 -
15.11.2019 13:00:00 10,1 8,3 4 2 - 1002,1 10 -
15.11.2019 12:00:00 9,0 8,0 8 4 NNW - 10 -
15.11.2019 11:00:00 8,0 6,0 5 3 NNW - 10 -
15.11.2019 10:00:00 6,8 5,1 5 3 NNW 1002,3 10 0,0
15.11.2019 09:00:00 5,0 4,0 8 4 W - 10 -
15.11.2019 08:00:00 5,0 4,0 9 5 W - 10 -
15.11.2019 07:00:00 6,1 5,3 9 5 S 1000,3 8 -
15.11.2019 06:00:00 11,0 10,0 34 18 ESE - 8 -
15.11.2019 05:00:00 11,0 9,0 21 11 SE - 4,0 -
15.11.2019 04:00:00 9,7 8,8 22 12 SSE 998,2 3,5 0,0
15.11.2019 03:00:00 10,0 8,0 26 14 SSE - 4,0 -
15.11.2019 02:00:00 10,0 7,0 29 16 SE - 7 -
15.11.2019 01:00:00 9,5 6,9 16 9 S 1000,5 8 -
15.11.2019 00:00:00 10,0 6,0 26 14 ESE - 9 -
14.11.2019 23:00:00 10,0 5,0 26 14 ESE - 10 -
14.11.2019 22:00:00 9,2 5,0 16 9 ESE 1004,2 10 0,0
14.11.2019 21:00:00 10,0 4,0 16 9 E - 10 -
14.11.2019 20:00:00 9,0 5,0 13 7 E - 10 -
14.11.2019 19:00:00 8,8 4,3 8 4 NE 1005,8 10 -
14.11.2019 18:00:00 8,0 4,0 5 3 NNE - 10 -
14.11.2019 17:00:00 8,0 4,0 2 1 - - 10 -
14.11.2019 16:00:00 8,3 4,2 4 2 SSW 1007,5 10 0,0
14.11.2019 15:00:00 9,0 2,0 8 4 NNW - 10 -
14.11.2019 14:00:00 8,0 2,0 4 2 - - 10 -
14.11.2019 13:00:00 7,8 2,1 2 1 - 1008,8 10 -
14.11.2019 12:00:00 7,0 2,0 4 2 - - 10 -
14.11.2019 11:00:00 7,0 2,0 5 3 ENE - 10 -
14.11.2019 10:00:00 5,5 0,7 8 4 NE 1010,1 10 0,0
14.11.2019 09:00:00 4,0 1,0 9 5 S - 10 -
14.11.2019 08:00:00 5,0 0,0 5 3 E - 10 -
14.11.2019 07:00:00 2,1 -0,6 5 3 NNE 1008,5 10 -
14.11.2019 06:00:00 4,0 -1,0 8 4 NE - 10 -
14.11.2019 05:00:00 4,0 1,0 8 4 ENE - 10 -
14.11.2019 04:00:00 1,8 -0,3 8 4 NE 1008,1 10 0,0
14.11.2019 03:00:00 4,0 1,0 4 2 - - 9 -
14.11.2019 02:00:00 5,0 4,0 2 1 - - 4,0 -
14.11.2019 01:00:00 5,3 3,8 5 3 E 1006,7 5 -
14.11.2019 00:00:00 6,0 5,0 11 6 NE - 4,9 -
13.11.2019 23:00:00 5,0 4,0 8 4 NE - 10 -
13.11.2019 22:00:00 5,6 3,8 5 3 E 1005,5 10 0,0
13.11.2019 21:00:00 7,0 5,0 5 3 SSW - 10 -
13.11.2019 20:00:00 6,0 3,0 8 4 NE - 10 -
13.11.2019 19:00:00 9,0 -1,8 5 3 SW 1003,2 10 -
13.11.2019 18:00:00 8,0 2,0 5 3 W - 10 -

tt = temperature
td = dewpoint
ff = wind speed
dd = wind direction
ppp = reduced air pressure
vv = visibility
rr = precipitation

Next stations